Moncks Corner, SC

4:28 AM EST on November 19, 2017 (GMT -0500)
Moncks Corner

Weather History for KMKS - March, 2013

Change the Weather History Date:

Saturday, March 30, 2013

  Actual Average (KCHS) Record (KCHS)
Temperature  
Mean Temperature 60 °F -  
Max Temperature 73 °F 73 °F 88 °F (1954)
Min Temperature 48 °F 53 °F 31 °F (1955)
Degree Days  
Heating Degree Days 4    
Growing Degree Days 10 (Base 50)    
Moisture  
Dew Point 44 °F    
Average Humidity 61    
Maximum Humidity 87    
Minimum Humidity 33    
Precipitation  
Precipitation 0.00 in - - ()
Sea Level Pressure  
Sea Level Pressure 30.16 in    
Wind  
Wind Speed 2 mph (SSW)    
Max Wind Speed 10 mph    
Max Gust Speed 21 mph    
Visibility 9 miles    
Events      
Averages and records for this station are not official NWS values.
T = Trace of Precipitation, MM = Missing Value Source: NWS Daily Summary

Daily Weather History Graph

Daily Weather History Graph

Search for Another Location

Airport or City:

Trip Planner

Search our weather history database for the weather conditions in past years. The results will help you decide how hot, cold, wet, or windy it might be!

Date:

Astronomy

Mar. 30, 2013 Rise Set
Actual Time 7:10 AM EDT 7:39 PM EDT
Civil Twilight 6:45 AM EDT 8:04 PM EDT
Nautical Twilight 6:16 AM EDT 8:33 PM EDT
Astronomical Twilight 5:46 AM EDT 9:03 PM EDT
Moon 11:31 PM EDT (3/30) 9:15 AM EDT (3/30)
Length of Visible Light 13h 18m
Length of Day
12h 28m
Waning Gibbous, 86% of the Moon is Illuminated
Mar 30
Waning Gibbous
Apr 3
Last Quarter
Apr 10
New
Apr 18
First Quarter
Apr 25
Full

Hourly Weather History & Observations

Time (EDT) Temp. Dew Point Humidity Pressure Visibility Wind Dir Wind Speed Gust Speed Precip Events Conditions
12:15 AM 50.0 °F 39.2 °F 66% 30.26 in 10.0 mi Calm Calm - N/A   Overcast
12:35 AM 50.0 °F 41.0 °F 71% 30.26 in 10.0 mi Calm Calm - N/A   Overcast
12:55 AM 50.0 °F 41.0 °F 71% 30.25 in 10.0 mi Calm Calm - N/A   Scattered Clouds
1:15 AM 50.0 °F 41.0 °F 71% 30.25 in 10.0 mi Calm Calm - N/A   Clear
1:35 AM 50.0 °F 41.0 °F 71% 30.25 in 10.0 mi Calm Calm - N/A   Scattered Clouds
2:15 AM 50.0 °F 42.8 °F 76% 30.24 in 10.0 mi Calm Calm - N/A   Scattered Clouds
2:35 AM 50.0 °F 42.8 °F 76% 30.23 in 10.0 mi Calm Calm - N/A   Scattered Clouds
2:55 AM 50.0 °F 42.8 °F 76% 30.23 in 10.0 mi Calm Calm - N/A   Clear
3:15 AM 48.2 °F 42.8 °F 82% 30.23 in 10.0 mi Calm Calm - N/A   Clear
3:35 AM 48.2 °F 42.8 °F 82% 30.22 in 10.0 mi Calm Calm - N/A   Scattered Clouds
3:55 AM 48.2 °F 42.8 °F 82% 30.21 in 10.0 mi Calm Calm - N/A   Clear
4:15 AM 48.2 °F 42.8 °F 82% 30.21 in 10.0 mi Calm Calm - N/A   Clear
4:35 AM 48.2 °F 42.8 °F 82% 30.20 in 10.0 mi Calm Calm - N/A   Clear
4:55 AM 48.2 °F 44.6 °F 87% 30.20 in 10.0 mi Calm Calm - N/A   Clear
5:15 AM 48.2 °F 42.8 °F 82% 30.21 in 10.0 mi Calm Calm - N/A   Mostly Cloudy
5:35 AM 48.2 °F 44.6 °F 87% 30.22 in 10.0 mi Calm Calm - N/A   Overcast
5:55 AM 48.2 °F 44.6 °F 87% 30.22 in 10.0 mi Calm Calm - N/A   Overcast
6:15 AM 48.2 °F 44.6 °F 87% 30.22 in 10.0 mi Calm Calm - N/A   Scattered Clouds
6:35 AM 48.2 °F 44.6 °F 87% 30.21 in 10.0 mi Calm Calm - N/A   Scattered Clouds
6:55 AM 48.2 °F 44.6 °F 87% 30.21 in 10.0 mi Calm Calm - N/A   Mostly Cloudy
7:15 AM 48.2 °F 44.6 °F 87% 30.21 in 10.0 mi Calm Calm - N/A   Mostly Cloudy
7:35 AM 48.2 °F 44.6 °F 87% 30.20 in 10.0 mi Calm Calm - N/A   Scattered Clouds
7:55 AM 48.2 °F 44.6 °F 87% 30.20 in 10.0 mi Calm Calm - N/A   Scattered Clouds
8:15 AM 50.0 °F 44.6 °F 82% 30.20 in 10.0 mi Calm Calm - N/A   Mostly Cloudy
8:35 AM 51.8 °F 46.4 °F 82% 30.21 in 10.0 mi Calm Calm - N/A   Mostly Cloudy
8:55 AM 51.8 °F 46.4 °F 82% 30.20 in 10.0 mi Calm Calm - N/A   Scattered Clouds
9:15 AM 55.4 °F 48.2 °F 77% 30.20 in 10.0 mi Calm Calm - N/A   Clear
9:35 AM 57.2 °F 48.2 °F 72% 30.21 in 10.0 mi South 3.5 mph - N/A   Mostly Cloudy
9:55 AM 57.2 °F 48.2 °F 72% 30.21 in 10.0 mi South 3.5 mph - N/A   Mostly Cloudy
10:15 AM 60.8 °F 48.2 °F 63% 30.20 in 7.0 mi SSW 5.8 mph - N/A   Scattered Clouds
10:35 AM 62.6 °F 46.4 °F 55% 30.20 in 7.0 mi SSW 3.5 mph - N/A   Mostly Cloudy
11:15 AM 66.2 °F 46.4 °F 49% 30.20 in 10.0 mi SSW 8.1 mph - N/A   Mostly Cloudy
11:35 AM 62.6 °F 42.8 °F 48% 30.20 in 7.0 mi WSW 5.8 mph - N/A   Mostly Cloudy
11:55 AM 64.4 °F 44.6 °F 49% 30.20 in 10.0 mi WSW 5.8 mph - N/A   Light Drizzle
12:15 PM 64.4 °F 44.6 °F 49% 30.19 in 10.0 mi SW 10.4 mph - N/A   Mostly Cloudy
12:35 PM 64.4 °F 44.6 °F 49% 30.19 in 7.0 mi SW 5.8 mph - N/A   Mostly Cloudy
12:55 PM 66.2 °F 42.8 °F 43% 30.18 in 10.0 mi SW 5.8 mph - N/A   Overcast
1:15 PM 66.2 °F 42.8 °F 43% 30.18 in 7.0 mi WSW 4.6 mph - N/A   Mostly Cloudy
1:35 PM 68.0 °F 42.8 °F 40% 30.16 in 7.0 mi SW 4.6 mph - N/A   Scattered Clouds
2:15 PM 71.6 °F 44.6 °F 38% 30.15 in 7.0 mi SW 8.1 mph - N/A   Clear
2:35 PM 69.8 °F 42.8 °F 38% 30.14 in 10.0 mi Calm Calm - N/A   Mostly Cloudy
2:55 PM 71.6 °F 44.6 °F 38% 30.13 in 10.0 mi NW 3.5 mph - N/A   Mostly Cloudy
3:15 PM 71.6 °F 44.6 °F 38% 30.12 in 7.0 mi NNW 3.5 mph - N/A   Mostly Cloudy
3:35 PM 71.6 °F 44.6 °F 38% 30.11 in 10.0 mi Calm Calm - N/A   Mostly Cloudy
4:15 PM 73.4 °F 42.8 °F 33% 30.10 in 7.0 mi SSW 8.1 mph 16.1 mph N/A   Scattered Clouds
4:35 PM 73.4 °F 44.6 °F 36% 30.09 in 7.0 mi WSW 4.6 mph 20.7 mph N/A   Clear
4:55 PM 73.4 °F 44.6 °F 36% 30.09 in 10.0 mi Calm Calm - N/A   Mostly Cloudy
5:15 PM 73.4 °F 44.6 °F 36% 30.08 in 10.0 mi Calm Calm - N/A   Mostly Cloudy
5:35 PM 73.4 °F 44.6 °F 36% 30.07 in 10.0 mi West 3.5 mph - N/A   Scattered Clouds
5:55 PM 71.6 °F 44.6 °F 38% 30.07 in 10.0 mi North 6.9 mph - N/A   Scattered Clouds
6:15 PM 71.6 °F 44.6 °F 38% 30.07 in 10.0 mi NNE 5.8 mph - N/A   Scattered Clouds
6:35 PM 69.8 °F 44.6 °F 40% 30.08 in 10.0 mi NNE 3.5 mph - N/A   Mostly Cloudy
6:55 PM 69.8 °F 44.6 °F 40% 30.08 in 7.0 mi North 3.5 mph - N/A   Overcast
7:15 PM 69.8 °F 46.4 °F 43% 30.08 in 10.0 mi East 3.5 mph - N/A   Mostly Cloudy
7:35 PM 68.0 °F 46.4 °F 46% 30.09 in 7.0 mi South 3.5 mph - N/A   Mostly Cloudy
7:55 PM 68.0 °F 44.6 °F 43% 30.09 in 7.0 mi South 3.5 mph - N/A   Scattered Clouds
8:15 PM 66.2 °F 42.8 °F 43% 30.09 in 10.0 mi South 3.5 mph - N/A   Scattered Clouds
8:35 PM 64.4 °F 41.0 °F 42% 30.09 in 10.0 mi SSE 3.5 mph - N/A   Scattered Clouds
8:55 PM 62.6 °F 42.8 °F 48% 30.10 in 10.0 mi Calm Calm - N/A   Scattered Clouds
9:15 PM 62.6 °F 41.0 °F 45% 30.10 in 7.0 mi SSE 3.5 mph - N/A   Scattered Clouds
9:35 PM 60.8 °F 42.8 °F 52% 30.10 in 10.0 mi South 4.6 mph - N/A   Scattered Clouds
10:15 PM 60.8 °F 42.8 °F 52% 30.11 in 10.0 mi South 3.5 mph - N/A   Clear
10:35 PM 59.0 °F 44.6 °F 59% 30.10 in 10.0 mi South 4.6 mph - N/A   Clear
10:55 PM 59.0 °F 44.6 °F 59% 30.11 in 10.0 mi South 5.8 mph - N/A   Clear
11:15 PM 59.0 °F 46.4 °F 63% 30.10 in 10.0 mi South 5.8 mph - N/A   Clear
11:35 PM 59.0 °F 46.4 °F 63% 30.10 in 10.0 mi SSW 5.8 mph - N/A   Clear
11:55 PM 59.0 °F 48.2 °F 67% 30.10 in 7.0 mi SSW 6.9 mph - N/A   Clear